RH
84 75 66 68 74 76 89 89 91 81 70 59 53 52 49 45 42 34 43 79 78 73 67 67 67 71 72 70 70 68 65 65 64 67 68 68 68 68 68 68 68 66 66
79 79 72 77 86 80 92 96 92 80 70 54 54 52 50 46 45 42 39 59 81 77 74 69 68 69 69 72 72 70 67 67 66 66 68 68 70 70 70 68 68 67 65
76 83 86 85 89 94 88 96 86 78 64 50 52 50 46 44 40 41 39 48 60 86 80 77 74 71 69 70 70 66 66 66 67 67 68 69 69 70 70 70 68 66 65
75 85 90 86 92 94 91 94 84 75 58 52 53 47 43 41 44 43 39 41 44 50 79 83 79 77 76 72 67 66 65 67 66 68 69 69 69 70 71 71 69 65 64
87 90 95 93 96 96 94 93 76 71 61 57 49 46 44 43 47 41 50 43 47 50 51 82 84 83 80 76 65 67 66 66 67 68 69 70 69 69 70 71 70 67 64
88 96 96 98 96 96 96 95 80 75 64 52 43 48 48 46 46 53 56 45 42 49 52 56 56 59 82 79 73 66 64 69 67 67 68 70 69 68 68 69 70 68 65
98 98 97 98 95 95 94 91 76 69 70 59 55 66 62 59 58 54 54 44 43 44 48 48 44 41 53 81 78 70 69 67 69 67 68 70 70 71 69 68 68 67 66
96 95 96 95 94 94 94 88 74 70 66 64 65 62 85 78 66 58 58 48 48 41 43 46 46 45 43 48 59 79 72 71 71 69 69 74 75 75 71 70 69 69 68
96 95 95 94 94 92 90 79 71 70 68 64 60 54 69 64 61 57 62 53 52 48 45 46 50 50 51 46 58 70 86 85 80 77 77 77 78 78 78 77 76 74 72
96 91 95 93 93 90 79 74 67 64 62 66 57 46 47 43 54 71 59 59 56 56 61 49 50 53 53 54 65 72 84 87 87 84 82 81 80 80 81 81 81 81 80
92 94 92 91 89 82 77 71 69 67 61 61 66 64 64 61 53 50 61 62 58 56 53 55 54 55 56 54 54 62 84 90 88 85 84 83 83 83 83 83 83 83 83
98 94 93 91 88 84 82 79 79 78 75 68 60 60 55 62 61 55 42 55 61 57 55 57 67 66 62 60 64 74 84 88 89 88 86 83 81 80 81 84 85 84 83
97 98 95 95 93 91 87 84 86 86 87 83 75 62 53 52 49 48 42 40 51 46 56 57 60 60 55 56 56 76 83 90 90 89 88 86 84 83 82 81 80 81 83
93 92 94 94 90 90 90 91 89 86 87 85 67 64 59 55 48 47 47 42 47 43 44 49 51 54 53 54 61 83 71 91 92 92 91 90 88 87 87 86 84 83 82
89 95 93 95 92 92 87 84 83 83 74 79 76 68 63 64 64 53 49 44 46 62 47 49 51 56 52 52 61 63 65 74 90 93 93 93 91 90 89 89 88 88 88
87 92 93 93 94 94 94 83 79 80 73 77 72 65 62 57 61 62 58 57 69 62 66 44 49 45 51 45 56 61 57 76 86 90 93 93 93 92 91 91 91 90 90
82 88 91 93 92 89 87 84 80 78 77 65 64 77 72 61 68 70 84 80 82 90 88 75 54 56 56 49 48 52 58 66 69 88 89 92 93 92 91 91 90 90 90
77 83 83 91 92 88 84 77 73 66 68 53 57 75 76 67 73 79 78 74 80 85 89 90 77 60 54 54 58 58 46 40 46 59 84 86 86 88 88 88 90 91 91
74 74 72 82 84 85 84 80 72 70 63 61 69 70 66 73 74 74 81 80 77 70 73 75 67 59 56 50 53 55 56 56 46 63 84 87 87 87 88 88 89 88 89
69 70 70 70 74 75 74 73 71 73 73 75 78 78 74 72 72 73 69 66 65 68 67 74 64 60 58 54 57 58 60 55 55 45 55 63 68 80 91 88 88 89 88
79 72 74 75 75 75 73 79 76 80 82 82 82 79 80 79 82 78 65 65 66 70 73 76 77 69 64 61 62 57 63 59 59 59 61 59 59 57 62 92 83 93 93
88 84 81 77 77 78 96 97 94 76 75 75 74 68 66 83 84 94 92 89 77 74 80 81 77 80 72 66 64 64 67 78 84 69 74 72 57 61 77 93 95 96 99
93 93 93 93 92 89 95 95 95 84 82 77 74 74 74 73 88 74 94 97 96 96 96 79 84 84 84 79 82 82 82 82 83 72 82 87 97 98 95 92 97 98 98
92 90 90 89 88 86 93 93 95 88 93 94 95 94 94 94 95 95 94 91 93 94 94 96 97 97 98 97 97 97 99 99 96 98 97 100 99 97 95 95 98 92 92
85 86 85 87 87 88 92 92 88 85 94 94 87 90 89 91 96 96 92 98 99 99 97 94 94 93 91 91 92 92 100 100 99 100 99 99 99 97 96 97 98 95 92
77 76 81 83 88 83 88 88 84 85 93 91 89 88 91 90 92 94 95 98 100 100 99 97 95 94 93 92 92 94 96 100 100 100 98 99 96 96 96 97 96 97 96
Wind_Speed
7 7 9 7 8 10 9 10 8 11 12 12 11 10 9 6 6 5 9 10 11 14 16 16 15 16 16 15 14 13 12 13 13 13 12 12 11 12 11 11 11 10 10
8 7 8 9 9 10 9 8 9 10 11 12 11 11 10 9 10 9 10 9 10 11 14 16 17 16 15 15 15 14 13 12 12 12 12 11 11 11 11 10 10 10 10
12 11 9 9 10 8 13 8 9 10 10 10 12 10 9 9 10 9 11 9 10 10 11 13 14 15 15 15 14 14 13 12 11 11 12 11 11 11 11 11 10 10 10
14 11 8 10 11 9 10 8 8 9 11 10 11 9 8 8 10 10 9 10 10 9 8 11 13 14 15 15 14 14 14 13 12 12 12 12 12 12 12 12 12 11 11
9 7 6 8 11 9 10 10 10 10 11 11 11 9 8 8 10 9 8 10 11 8 8 10 11 12 13 14 14 14 14 14 13 13 13 13 13 14 14 14 13 13 12
12 9 9 8 13 10 9 9 12 11 12 12 10 9 8 8 8 7 7 8 10 12 9 11 10 9 12 14 14 15 15 15 15 15 16 15 16 15 15 15 15 15 15
9 10 8 12 13 13 14 13 11 16 10 11 11 7 6 4 6 7 7 9 10 11 12 12 9 9 10 12 14 17 17 17 17 17 17 17 17 17 17 17 17 17 17
7 11 12 16 15 12 14 13 14 12 9 10 10 10 7 4 6 8 7 9 10 9 10 11 11 10 9 11 14 16 18 19 19 19 19 18 18 18 19 19 19 19 19
7 6 9 13 14 14 13 16 15 15 12 11 14 9 7 6 10 9 11 8 10 9 9 11 12 12 12 10 11 15 16 14 16 19 20 20 21 22 22 22 22 22 22
9 8 8 10 12 11 14 13 12 13 14 14 11 10 9 6 10 6 8 10 10 11 11 10 12 14 13 10 12 10 17 18 16 18 17 19 22 23 24 24 23 23 23
9 9 10 10 11 10 13 15 15 14 11 11 9 8 7 6 8 6 8 10 9 10 11 12 10 10 13 13 12 13 14 16 19 21 21 21 21 20 23 24 25 25 25
6 10 10 9 9 10 12 11 10 10 9 9 10 12 11 9 8 6 5 8 11 11 11 10 10 9 9 9 12 12 15 19 18 20 22 24 24 24 23 23 25 26 27
7 9 11 11 10 10 10 10 10 8 8 8 11 11 11 10 7 7 7 7 6 8 8 12 12 12 12 12 13 17 16 18 20 22 23 24 25 25 26 26 27 28 27
8 12 10 10 13 13 12 11 9 9 9 10 17 14 11 10 9 8 8 8 8 8 8 8 9 11 11 11 12 14 12 15 17 18 21 23 24 24 25 26 27 28 29
8 10 11 10 11 12 13 11 9 11 11 10 11 14 12 7 6 9 9 10 9 9 11 10 9 10 10 10 13 14 15 15 18 19 20 21 23 24 24 25 26 26 27
12 11 11 11 11 12 12 14 10 10 12 9 9 15 13 11 10 8 9 10 6 10 12 11 8 9 10 9 11 14 15 16 17 18 19 20 22 25 26 25 26 26 27
11 11 12 10 11 12 12 12 12 13 13 15 15 10 12 13 7 5 5 6 6 4 6 9 11 11 14 15 15 13 13 12 10 17 19 21 24 26 26 25 27 28 29
11 10 13 12 12 13 13 14 15 16 18 19 17 14 13 9 13 10 9 12 9 8 8 15 13 14 18 18 18 19 16 15 15 19 22 22 23 23 26 26 27 29 28
13 13 13 14 15 13 14 15 15 16 21 17 13 14 15 13 13 10 10 10 10 11 13 15 16 13 14 15 17 18 17 17 15 19 16 20 22 24 25 25 26 26 26
9 10 11 12 13 13 14 14 16 15 14 13 14 13 14 15 16 17 17 18 16 15 14 14 15 14 14 16 14 15 14 14 15 16 17 21 19 22 27 28 26 25 27
9 9 10 8 7 7 5 11 11 12 12 13 13 14 15 17 18 17 13 15 16 14 13 13 14 14 14 14 16 14 15 14 15 13 13 13 12 14 15 19 24 23 25
5 1 5 8 11 8 13 16 8 12 14 16 16 18 19 19 19 16 17 19 18 16 15 13 13 15 19 17 15 14 14 13 15 10 14 14 13 14 9 10 19 12 9
9 11 11 12 13 10 16 14 12 7 9 10 11 11 11 8 9 13 17 21 20 20 16 19 18 16 16 14 12 14 15 14 15 9 11 12 7 8 8 10 22 19 15
10 11 11 11 11 12 17 15 12 2 5 7 9 11 9 9 11 11 9 12 11 12 12 10 14 10 8 7 4 4 4 5 7 5 2 1 3 4 5 7 21 23 23
11 11 11 12 12 13 21 19 8 4 10 11 12 15 12 11 17 16 7 7 6 4 15 22 20 17 19 20 14 3 1 1 6 1 5 1 3 4 3 5 6 18 18
11 10 12 12 14 14 23 22 12 7 9 8 10 12 21 15 18 19 8 6 3 5 5 8 9 13 15 14 19 11 5 2 2 1 6 4 2 2 3 1 4 5 5
Wind_Direction
204 209 220 194 174 162 161 162 178 181 168 162 158 159 165 169 158 166 145 161 146 158 159 158 160 153 151 151 151 155 177 162 160 160 158 156 154 151 150 146 144 149 144
214 217 212 187 168 161 154 154 177 177 171 161 161 167 171 162 174 171 145 162 157 152 163 167 163 161 160 158 159 170 177 178 171 167 167 168 163 162 158 167 162 164 165
214 203 196 183 155 148 155 145 182 175 176 166 164 166 165 173 170 174 144 161 160 160 167 166 168 167 168 168 172 182 182 183 182 179 177 181 181 177 177 180 182 181 183
212 203 195 177 151 151 160 150 162 185 173 171 168 164 161 171 162 170 169 169 173 168 170 171 176 173 173 178 186 189 189 189 192 192 192 196 195 195 195 194 197 196 200
210 186 172 162 147 149 158 165 174 183 173 174 166 164 156 171 172 174 176 183 168 167 171 169 180 171 177 183 198 199 198 196 198 203 203 205 208 210 209 207 209 209 209
202 186 186 176 153 156 159 165 184 184 181 169 164 160 160 176 172 167 175 209 174 173 188 182 186 186 190 192 197 210 208 203 206 210 213 212 216 216 219 218 218 220 222
195 193 195 168 162 164 165 170 182 176 176 168 154 138 133 173 175 178 192 204 187 194 185 193 200 205 186 204 202 209 215 211 212 214 218 218 221 222 223 226 226 227 228
179 214 203 173 167 162 161 174 176 173 160 167 158 158 154 175 203 203 191 210 194 199 200 211 216 216 206 195 208 211 221 221 217 217 220 219 222 225 229 231 232 233 235
155 144 159 158 157 156 162 175 178 171 163 173 186 182 166 191 175 187 205 209 197 207 211 208 220 224 218 218 194 201 216 230 232 225 222 220 218 221 224 227 230 233 237
156 152 134 147 140 152 171 175 175 175 170 179 197 207 207 181 188 170 205 208 214 209 209 220 216 222 221 222 225 223 198 217 229 238 241 235 229 227 228 229 232 233 234
162 151 153 153 154 162 173 177 178 183 186 179 188 175 201 186 218 191 182 196 208 219 216 216 223 221 218 222 227 227 212 211 219 230 238 243 246 244 237 235 236 237 237
157 159 156 152 155 162 164 172 173 174 183 186 192 194 199 184 183 188 192 186 206 205 216 214 215 219 221 219 230 232 208 213 218 225 231 237 242 246 246 246 244 242 242
160 163 162 163 158 158 162 160 164 172 178 187 201 205 211 211 191 215 224 206 215 207 204 211 215 216 223 225 231 219 219 220 218 224 230 232 236 241 243 245 246 247 246
169 162 172 176 165 167 165 168 178 183 190 206 218 220 211 212 222 216 215 228 234 247 208 224 210 223 224 228 228 220 237 223 228 229 234 237 237 237 239 240 242 245 246
165 163 171 168 171 173 177 176 184 192 196 212 226 218 225 217 226 228 231 246 240 242 244 213 229 213 229 225 228 227 231 226 216 223 232 236 243 249 246 249 250 246 243
166 171 170 172 170 175 179 193 192 204 210 214 220 232 226 224 222 239 240 241 245 259 260 252 222 225 209 237 234 232 232 220 214 219 223 227 235 240 240 242 243 243 245
171 172 173 169 173 178 177 187 191 195 214 214 220 216 225 230 246 225 229 222 222 172 241 270 267 275 274 250 247 234 245 242 242 224 225 220 224 230 237 237 239 239 239
183 182 178 173 176 183 189 196 199 204 213 225 214 212 218 214 226 219 218 229 225 207 223 248 249 253 244 250 255 256 255 245 243 227 216 225 231 233 237 236 238 237 238
183 195 189 183 188 190 191 198 205 211 215 225 219 220 228 223 229 229 222 225 226 230 229 239 249 249 251 249 248 250 251 250 248 244 233 233 234 236 239 239 241 244 243
198 191 200 199 198 201 207 208 214 218 214 217 220 221 226 228 228 230 230 236 238 240 238 236 247 248 248 252 251 255 249 238 243 245 242 242 243 235 239 242 241 241 243
188 194 197 213 217 218 213 215 214 214 217 220 223 225 228 230 235 241 246 249 249 248 246 246 244 251 253 254 253 252 253 257 251 254 257 255 248 242 239 226 245 236 240
42 178 199 209 206 66 2 14 309 221 222 226 231 232 235 228 241 247 247 247 248 251 251 256 254 249 250 251 251 254 260 258 260 238 254 256 253 254 348 12 340 321 323
61 64 57 72 69 45 14 10 359 269 265 253 254 259 264 263 260 250 231 236 247 249 246 257 256 251 257 264 278 271 264 262 264 278 288 263 33 56 24 20 27 38 54
56 60 57 66 64 36 13 0 337 286 267 287 14 22 15 5 21 350 306 262 245 252 271 266 266 299 9 3 314 311 319 318 330 45 58 62 45 36 34 47 45 55 63
65 63 57 56 56 36 15 5 352 55 77 63 57 40 32 26 5 357 318 296 290 64 65 78 74 66 52 36 19 304 304 268 270 141 27 355 135 119 32 17 33 57 59
70 68 68 59 43 44 24 17 13 63 74 74 59 49 38 38 29 22 23 346 327 43 69 61 50 46 41 37 37 37 352 304 324 86 18 341 50 99 111 50 36 44 53